The Dalles, WA

1:22 PM PST on December 11, 2019 (GMT -0800)
Columbia Gorge Regional-The Dalles

Weather History for KDLS - October, 2019

Change the Weather History Date:

Tuesday, October 22, 2019

  Actual Average Record
Temperature  
Mean Temperature 60 °F -  
Max Temperature 68 °F 62 °F 74 °F (1952)
Min Temperature 53 °F 39 °F 26 °F (1981)
Degree Days  
Heating Degree Days 6    
Growing Degree Days 10 (Base 50)    
Moisture  
Dew Point 50 °F    
Average Humidity 74    
Maximum Humidity 96    
Minimum Humidity 40    
Precipitation  
Precipitation 0.03 in - - ()
Sea Level Pressure  
Sea Level Pressure 30.26 in    
Wind  
Wind Speed 7 mph (NW)    
Max Wind Speed 21 mph    
Max Gust Speed 31 mph    
Visibility 8 miles    
Events      
Averages and records for this station are not official NWS values.
T = Trace of Precipitation, MM = Missing Value Source: NWS Daily Summary

Daily Weather History Graph

Daily Weather History Graph

Search for Another Location

Airport or City:

Astronomy

Oct. 22, 2019 Rise Set
Actual Time 7:30 AM PDT 6:07 PM PDT
Civil Twilight 7:00 AM PDT 6:37 PM PDT
Nautical Twilight 6:25 AM PDT 7:11 PM PDT
Astronomical Twilight 5:51 AM PDT 7:46 PM PDT
Moon 12:20 AM PDT (10/22) 3:43 PM PDT (10/22)
Length of Visible Light 11h 37m
Length of Day
10h 36m
Last Quarter, 36% of the Moon is Illuminated
Oct 22
Last Quarter
Oct 27
New
Nov 4
First Quarter
Nov 12
Full
Nov 19
Last Quarter

Hourly Weather History & Observations

Time (PDT) Temp. Dew Point Humidity Pressure Visibility Wind Dir Wind Speed Gust Speed Precip Events Conditions
1:53 AM 55.0 °F 53.1 °F 93% 30.23 in 6.0 mi NNE 3.5 mph - 0.01 in   Overcast
2:15 AM 55.0 °F 53.1 °F 93% 30.23 in 6.0 mi SW 3.5 mph - N/A   Overcast
2:18 AM 55.0 °F 53.1 °F 93% 30.23 in 6.0 mi WSW 3.5 mph - N/A   Overcast
2:31 AM 55.0 °F 53.1 °F 93% 30.22 in 7.0 mi Calm Calm - N/A   Overcast
2:53 AM 55.0 °F 54.0 °F 96% 30.21 in 4.0 mi SW 3.5 mph - N/A   Overcast
3:01 AM 55.0 °F 54.0 °F 96% 30.21 in 5.0 mi SW 4.6 mph - N/A   Overcast
3:12 AM 55.0 °F 54.0 °F 96% 30.20 in 5.0 mi Calm Calm - N/A   Overcast
3:46 AM 55.0 °F 53.1 °F 93% 30.19 in 4.0 mi NE 4.6 mph - N/A   Overcast
3:53 AM 55.0 °F 53.1 °F 93% 30.20 in 5.0 mi Calm Calm - N/A   Overcast
4:03 AM 55.0 °F 53.1 °F 93% 30.19 in 5.0 mi Calm Calm - N/A   Overcast
4:53 AM 55.0 °F 54.0 °F 96% 30.20 in 6.0 mi Calm Calm - N/A   Overcast
5:53 AM 55.0 °F 53.1 °F 93% 30.21 in 5.0 mi Calm Calm - 0.02 in   Mostly Cloudy
6:53 AM 53.1 °F 52.0 °F 96% 30.22 in 8.0 mi SSW 4.6 mph - N/A   Mostly Cloudy
7:53 AM 57.9 °F 54.0 °F 87% 30.23 in 10.0 mi Variable 3.5 mph - N/A   Overcast
8:42 AM 63.0 °F 55.0 °F 75% 30.23 in 10.0 mi Calm Calm - N/A   Mostly Cloudy
8:53 AM 64.0 °F 55.0 °F 73% 30.24 in 10.0 mi NE 10.4 mph 17.3 mph N/A   Overcast
9:03 AM 64.0 °F 55.9 °F 75% 30.24 in 10.0 mi North 9.2 mph - N/A   Overcast
9:53 AM 64.0 °F 54.0 °F 70% 30.24 in 10.0 mi NW 19.6 mph 25.3 mph N/A   Overcast
10:53 AM 64.9 °F 52.0 °F 63% 30.25 in 10.0 mi NW 20.7 mph 29.9 mph N/A   Clear
11:53 AM 66.0 °F 51.1 °F 59% 30.27 in 10.0 mi NW 20.7 mph 29.9 mph N/A   Clear
12:53 PM 66.0 °F 48.9 °F 54% 30.28 in 10.0 mi NW 20.7 mph 31.1 mph N/A   Clear
1:53 PM 66.9 °F 46.9 °F 49% 30.28 in 10.0 mi WNW 13.8 mph - N/A   Clear
2:53 PM 66.9 °F 42.1 °F 40% 30.29 in 10.0 mi West 19.6 mph 23.0 mph N/A   Clear
3:03 PM 66.0 °F 42.1 °F 42% 30.29 in 10.0 mi WSW 20.7 mph 28.8 mph N/A   Clear
3:53 PM 64.9 °F 45.0 °F 48% 30.30 in 10.0 mi NW 13.8 mph - N/A   Clear
4:53 PM 63.0 °F 45.0 °F 52% 30.31 in 10.0 mi NNW 12.7 mph - N/A   Clear
5:53 PM 60.1 °F 44.1 °F 55% 30.31 in 10.0 mi NW 10.4 mph - N/A   Clear
6:53 PM 57.9 °F 45.0 °F 62% 30.30 in 10.0 mi NW 9.2 mph - N/A   Clear
7:53 PM 57.9 °F 44.1 °F 60% 30.32 in 10.0 mi NNW 10.4 mph - N/A   Clear
8:53 PM 57.0 °F 41.0 °F 55% 30.31 in 10.0 mi WNW 12.7 mph - N/A   Clear
9:53 PM 55.9 °F 42.1 °F 60% 30.32 in 10.0 mi NW 12.7 mph - N/A   Clear
10:53 PM 55.0 °F 45.0 °F 69% 30.35 in 10.0 mi NW 10.4 mph - N/A   Clear
11:53 PM 55.0 °F 45.0 °F 69% 30.36 in 10.0 mi NW 15.0 mph - N/A   Clear